This is the latest recevied weather packets stored in our database for station/object W4BOD. If no packets are shown the sender has not sent any weather packets the latest 10 day(s).
| Time | Temp. | Humidity | Pressure | Rain* | Wind** | Luminosity | Snow |
|---|---|---|---|---|---|---|---|
| 1777653968 | 20° C | 61% | 1015.6 hPa | 0 mm | - | 571 W/m² | - |
| 1777653665 | 19.44° C | 58% | 1015.7 hPa | 0 mm | - | 911 W/m² | - |
| 1777653361 | 19.44° C | 55% | 1015.7 hPa | 0 mm | - | 963 W/m² | - |
| 1777653058 | 19.44° C | 56% | 1015.7 hPa | 0 mm | - | 830 W/m² | - |
| 1777652754 | 19.44° C | 53% | 1015.8 hPa | 0 mm | - | 876 W/m² | - |
| 1777652451 | 18.89° C | 53% | 1015.8 hPa | 0 mm | - | 845 W/m² | - |
| 1777652149 | 19.44° C | 52% | 1015.8 hPa | 0 mm | - | 822 W/m² | - |
| 1777651845 | 19.44° C | 52% | 1016.1 hPa | 0 mm | - | 872 W/m² | - |
| 1777651542 | 18.89° C | 51% | 1015.9 hPa | 0 mm | - | 866 W/m² | - |
| 1777651239 | 18.33° C | 51% | 1015.9 hPa | 0 mm | - | 857 W/m² | - |
| 1777650935 | 18.89° C | 53% | 1016 hPa | 0 mm | - | 846 W/m² | - |
| 1777650633 | 19.44° C | 54% | 1015.8 hPa | 0 mm | - | 834 W/m² | - |
| 1777650330 | 19.44° C | 56% | 1016.1 hPa | 0 mm | - | 828 W/m² | - |
| 1777650027 | 18.89° C | 53% | 1016 hPa | 0 mm | - | 832 W/m² | - |
| 1777649725 | 18.89° C | 50% | 1015.9 hPa | 0 mm | - | 773 W/m² | - |
| 1777649421 | 18.89° C | 53% | 1015.9 hPa | 0 mm | - | 756 W/m² | - |
| 1777649118 | 18.89° C | 51% | 1015.9 hPa | 0 mm | - | 737 W/m² | - |
| 1777648816 | 18.89° C | 50% | 1015.7 hPa | 0 mm | - | 684 W/m² | - |
| 1777648512 | 18.89° C | 50% | 1015.8 hPa | 0 mm | - | 776 W/m² | - |
| 1777648209 | 18.33° C | 49% | 1015.9 hPa | 0 mm | - | 758 W/m² | - |
| 1777647904 | 18.33° C | 57% | 1015.7 hPa | 0 mm | - | 735 W/m² | - |
| 1777647601 | 17.78° C | 54% | 1015.5 hPa | 0 mm | - | 549 W/m² | - |
| 1777647297 | 17.22° C | 59% | 1015.7 hPa | 0 mm | - | 718 W/m² | - |
| 1777646995 | 17.78° C | 54% | 1015.6 hPa | 0 mm | - | 664 W/m² | - |
| 1777646690 | 17.22° C | 59% | 1015.7 hPa | 0 mm | - | 666 W/m² | - |
* Rain latest hour (hover to see other rain measurements)
** Current wind speed in m/s (hover to see current wind gust speed)